| time (UTC) | temp F | wind direction | speed MPH | gust MPH | rain 1hr in | rain 24hr in | rain mn in | humidity % | barometer mb |
| 20260906075017 | 61 | 23 | 1.0 | 5.0 | 0.04 | 0.11 | 0.11 | 95 | 1013.0 |
| 20260906074037 | 61 | 23 | 2.0 | 6.0 | 0.03 | 0.10 | 0.10 | 95 | 1012.9 |
| 20260906073017 | 61 | 0 | 2.0 | 4.0 | 0.04 | 0.10 | 0.10 | 95 | 1012.8 |
| 20260906072017 | 61 | 0 | 1.0 | 3.0 | 0.08 | 0.10 | 0.10 | 94 | 1012.9 |
| 20260906071017 | 61 | 0.0 | 3.0 | 0.09 | 0.09 | 0.09 | 94 | 1012.8 | |
| 20260906070037 | 61 | 0 | 1.0 | 3.0 | 0.08 | 0.08 | 0.08 | 94 | 1012.8 |
| 20260906065017 | 61 | 0 | 1.0 | 3.0 | 0.07 | 0.07 | 0.07 | 94 | 1013.0 |
| 20260906064017 | 61 | 0 | 1.0 | 3.0 | 0.07 | 0.07 | 0.07 | 94 | 1012.8 |
| 20260906063017 | 61 | 0 | 1.0 | 5.0 | 0.06 | 0.06 | 0.06 | 94 | 1012.9 |
| 20260906062017 | 61 | 0 | 1.0 | 3.0 | 0.02 | 0.02 | 0.02 | 94 | 1012.9 |
| 20260906061017 | 61 | 338 | 1.0 | 4.0 | 0.00 | 0.00 | 0.00 | 94 | 1012.9 |
| 20260906060016 | 61 | 338 | 1.0 | 3.0 | 0.00 | 0.00 | 0.00 | 94 | 1012.9 |
| 20260906055037 | 61 | 338 | 1.0 | 3.0 | 0.00 | 0.00 | 0.00 | 94 | 1013.0 |
| 20260906054016 | 62 | 338 | 1.0 | 4.0 | 0.00 | 0.00 | 0.00 | 94 | 1012.9 |
| 20260906053017 | 62 | 0.0 | 2.0 | 0.00 | 0.00 | 0.00 | 93 | 1012.8 | |
| 20260906052017 | 62 | 0.0 | 2.0 | 0.00 | 0.00 | 0.00 | 93 | 1013.0 | |
| 20260906051016 | 62 | 0.0 | 2.0 | 0.00 | 0.00 | 0.00 | 93 | 1013.0 | |
| 20260906050016 | 62 | 315 | 1.0 | 3.0 | 0.00 | 0.00 | 0.00 | 93 | 1013.1 |
| 20260906045036 | 62 | 0.0 | 2.0 | 0.00 | 0.00 | 0.00 | 93 | 1013.1 | |
| 20260906044016 | 62 | 0.0 | 2.0 | 0.00 | 0.00 | 0.00 | 93 | 1013.1 | |
| 20260906043016 | 62 | 0.0 | 2.0 | 0.00 | 0.00 | 0.00 | 93 | 1013.0 | |
| 20260906042057 | 63 | 0.0 | 1.0 | 0.00 | 0.00 | 0.00 | 93 | 1013.0 | |
| 20260906041016 | 63 | 0.0 | 1.0 | 0.00 | 0.00 | 0.00 | 93 | 1013.0 | |
| 20260906040016 | 63 | 0.0 | 1.0 | 0.00 | 0.00 | 0.00 | 93 | 1012.9 | |
| 20260906035017 | 63 | 0.0 | 1.0 | 0.00 | 0.00 | 0.00 | 92 | 1012.9 | |
| 20260906034017 | 63 | 0.0 | 1.0 | 0.00 | 0.00 | 0.00 | 92 | 1012.9 | |
| 20260906033017 | 63 | 0.0 | 2.0 | 0.00 | 0.00 | 0.00 | 92 | 1012.8 | |
| 20260906032017 | 63 | 0.0 | 2.0 | 0.00 | 0.00 | 0.00 | 92 | 1012.7 | |
| 20260906031017 | 63 | 0.0 | 1.0 | 0.00 | 0.00 | 0.00 | 92 | 1012.7 | |
| 20260906030037 | 63 | 0.0 | 2.0 | 0.00 | 0.00 | 0.00 | 91 | 1012.8 | |
| 20260906025037 | 63 | 0.0 | 1.0 | 0.00 | 0.00 | 0.00 | 91 | 1012.7 | |
| 20260906024017 | 63 | 0.0 | 1.0 | 0.00 | 0.00 | 0.00 | 90 | 1012.8 | |
| 20260906023017 | 64 | 0.0 | 0.0 | 0.00 | 0.00 | 0.00 | 90 | 1012.7 | |
| 20260906022017 | 64 | 0.0 | 0.0 | 0.00 | 0.00 | 0.00 | 89 | 1012.6 | |
| 20260906021057 | 64 | 0.0 | 0.0 | 0.00 | 0.00 | 0.00 | 88 | 1012.5 | |
| 20260906020017 | 64 | 0.0 | 0.0 | 0.00 | 0.00 | 0.00 | 88 | 1012.7 | |
| 20260906015017 | 64 | 0.0 | 0.0 | 0.00 | 0.00 | 0.00 | 88 | 1012.8 | |
| 20260906014017 | 64 | 0.0 | 2.0 | 0.00 | 0.00 | 0.00 | 87 | 1012.8 | |
| 20260906013016 | 64 | 0 | 1.0 | 3.0 | 0.00 | 0.00 | 0.00 | 87 | 1012.9 |
| 20260906012017 | 65 | 0 | 1.0 | 3.0 | 0.00 | 0.00 | 0.00 | 86 | 1012.8 |
| 20260906011017 | 65 | 23 | 1.0 | 4.0 | 0.00 | 0.00 | 0.00 | 85 | 1012.8 |
| 20260906010037 | 65 | 0.0 | 0.0 | 0.00 | 0.00 | 0.00 | 84 | 1012.7 | |
| 20260906005016 | 65 | 0.0 | 0.0 | 0.00 | 0.00 | 0.00 | 83 | 1012.5 | |
| 20260906004017 | 65 | 0.0 | 0.0 | 0.00 | 0.00 | 0.00 | 82 | 1012.4 | |
| 20260906003017 | 65 | 0.0 | 1.0 | 0.00 | 0.00 | 0.00 | 80 | 1012.3 | |
| 20260906002017 | 65 | 0.0 | 0.0 | 0.00 | 0.00 | 0.00 | 80 | 1012.3 | |
| 20260906001017 | 65 | 0.0 | 1.0 | 0.00 | 0.00 | 0.00 | 80 | 1012.3 | |
| 20260906000017 | 65 | 0.0 | 2.0 | 0.00 | 0.00 | 0.00 | 79 | 1012.2 | |
| 20260905235017 | 66 | 0.0 | 2.0 | 0.00 | 0.00 | 0.00 | 79 | 1012.2 | |
| 20260905234037 | 66 | 0.0 | 3.0 | 0.00 | 0.00 | 0.00 | 79 | 1012.0 | |
| 20260905233017 | 66 | 0.0 | 1.0 | 0.00 | 0.00 | 0.00 | 78 | 1012.1 | |
| 20260905232017 | 66 | 0.0 | 1.0 | 0.00 | 0.00 | 0.00 | 78 | 1011.8 | |
| 20260905231016 | 66 | 0.0 | 0.0 | 0.00 | 0.00 | 0.00 | 78 | 1011.7 | |
| 20260905230016 | 66 | 0.0 | 3.0 | 0.00 | 0.00 | 0.00 | 77 | 1011.7 | |
| 20260905225037 | 66 | 0.0 | 1.0 | 0.00 | 0.00 | 0.00 | 77 | 1011.6 | |
| 20260905224016 | 66 | 0.0 | 3.0 | 0.00 | 0.00 | 0.00 | 76 | 1011.5 | |
| 20260905223016 | 66 | 158 | 1.0 | 4.0 | 0.00 | 0.00 | 0.00 | 76 | 1011.4 |
| 20260905222016 | 66 | 158 | 1.0 | 4.0 | 0.00 | 0.00 | 0.00 | 76 | 1011.5 |
| 20260905221037 | 66 | 135 | 1.0 | 5.0 | 0.00 | 0.00 | 0.00 | 76 | 1011.4 |
| 20260905220016 | 66 | 158 | 1.0 | 4.0 | 0.00 | 0.00 | 0.00 | 77 | 1011.4 |
| 20260905215016 | 66 | 113 | 3.0 | 8.0 | 0.00 | 0.00 | 0.00 | 76 | 1011.1 |
| 20260905214016 | 66 | 135 | 2.0 | 7.0 | 0.00 | 0.00 | 0.00 | 77 | 1010.9 |
| 20260905213037 | 66 | 113 | 2.0 | 7.0 | 0.00 | 0.00 | 0.00 | 77 | 1011.0 |
| 20260905212017 | 67 | 135 | 2.0 | 4.0 | 0.00 | 0.00 | 0.00 | 77 | 1010.9 |
| 20260905211016 | 67 | 203 | 2.0 | 10.0 | 0.00 | 0.00 | 0.00 | 76 | 1010.8 |
| 20260905210016 | 68 | 135 | 3.0 | 7.0 | 0.00 | 0.00 | 0.00 | 76 | 1010.9 |
| 20260905205016 | 69 | 90 | 3.0 | 7.0 | 0.00 | 0.00 | 0.00 | 73 | 1010.7 |
| 20260905204016 | 70 | 158 | 2.0 | 8.0 | 0.00 | 0.00 | 0.00 | 71 | 1010.6 |
| 20260905203016 | 71 | 113 | 3.0 | 8.0 | 0.00 | 0.00 | 0.00 | 69 | 1010.4 |
| 20260905202016 | 72 | 113 | 4.0 | 8.0 | 0.00 | 0.00 | 0.00 | 69 | 1010.2 |
| 20260905201016 | 73 | 135 | 3.0 | 8.0 | 0.00 | 0.00 | 0.00 | 67 | 1010.1 |
| 20260905200016 | 74 | 135 | 1.0 | 9.0 | 0.00 | 0.00 | 0.00 | 65 | 1010.0 |
| 20260905195016 | 74 | 180 | 2.0 | 7.0 | 0.00 | 0.00 | 0.00 | 65 | 1009.9 |
| 20260905194016 | 74 | 135 | 2.0 | 7.0 | 0.00 | 0.00 | 0.00 | 65 | 1009.9 |
| 20260905193016 | 74 | 338 | 3.0 | 8.0 | 0.00 | 0.00 | 0.00 | 65 | 1010.0 |
| 20260905192016 | 73 | 248 | 2.0 | 6.0 | 0.00 | 0.00 | 0.00 | 68 | 1010.0 |
| 20260905191016 | 72 | 135 | 2.0 | 6.0 | 0.00 | 0.00 | 0.00 | 70 | 1010.0 |
| 20260905190016 | 72 | 45 | 2.0 | 5.0 | 0.00 | 0.00 | 0.00 | 68 | 1010.1 |
| 20260905185036 | 73 | 135 | 3.0 | 9.0 | 0.00 | 0.00 | 0.00 | 67 | 1010.0 |
| 20260905184056 | 73 | 158 | 4.0 | 9.0 | 0.00 | 0.00 | 0.00 | 69 | 1010.1 |
| 20260905183016 | 73 | 113 | 3.0 | 10.0 | 0.00 | 0.00 | 0.00 | 70 | 1010.1 |
| 20260905182016 | 72 | 158 | 3.0 | 7.0 | 0.00 | 0.00 | 0.00 | 71 | 1010.2 |
| 20260905181016 | 72 | 135 | 3.0 | 7.0 | 0.00 | 0.00 | 0.00 | 71 | 1010.1 |
| 20260905180036 | 71 | 113 | 2.0 | 5.0 | 0.00 | 0.00 | 0.00 | 72 | 1010.1 |
| 20260905175016 | 72 | 135 | 2.0 | 7.0 | 0.00 | 0.00 | 0.00 | 70 | 1010.0 |
| 20260905174036 | 73 | 113 | 2.0 | 6.0 | 0.00 | 0.00 | 0.00 | 68 | 1009.9 |
| 20260905173016 | 72 | 23 | 2.0 | 5.0 | 0.00 | 0.00 | 0.00 | 67 | 1009.8 |
| 20260905172016 | 72 | 45 | 2.0 | 8.0 | 0.00 | 0.00 | 0.00 | 67 | 1009.7 |
| 20260905171016 | 72 | 0 | 2.0 | 5.0 | 0.00 | 0.00 | 0.00 | 68 | 1009.7 |
| 20260905170016 | 71 | 23 | 3.0 | 7.0 | 0.00 | 0.00 | 0.00 | 70 | 1009.7 |
| 20260905165016 | 71 | 0 | 4.0 | 9.0 | 0.00 | 0.00 | 0.00 | 69 | 1009.8 |
| 20260905164056 | 71 | 0 | 3.0 | 7.0 | 0.00 | 0.00 | 0.00 | 68 | 1009.7 |
| 20260905163016 | 71 | 23 | 4.0 | 10.0 | 0.00 | 0.00 | 0.00 | 68 | 1009.8 |
| 20260905162016 | 71 | 0 | 3.0 | 7.0 | 0.00 | 0.00 | 0.00 | 69 | 1009.7 |
| 20260905161016 | 70 | 0 | 3.0 | 9.0 | 0.00 | 0.00 | 0.00 | 71 | 1009.8 |
| 20260905160016 | 70 | 338 | 4.0 | 9.0 | 0.00 | 0.00 | 0.00 | 71 | 1009.9 |
| 20260905155036 | 70 | 23 | 5.0 | 10.0 | 0.00 | 0.00 | 0.00 | 71 | 1009.8 |
| 20260905154016 | 70 | 0 | 3.0 | 8.0 | 0.00 | 0.00 | 0.00 | 70 | 1010.0 |
| 20260905153036 | 71 | 0 | 4.0 | 9.0 | 0.00 | 0.00 | 0.00 | 71 | 1009.9 |
| 20260905152016 | 71 | 23 | 2.0 | 7.0 | 0.00 | 0.00 | 0.00 | 73 | 1009.9 |
| 20260905151016 | 70 | 0 | 4.0 | 9.0 | 0.00 | 0.00 | 0.00 | 74 | 1009.9 |
| 20260905150016 | 69 | 0 | 5.0 | 11.0 | 0.00 | 0.00 | 0.00 | 76 | 1009.8 |
| 20260905145016 | 69 | 0 | 4.0 | 9.0 | 0.00 | 0.00 | 0.00 | 76 | 1009.8 |
| 20260905144016 | 68 | 0 | 4.0 | 9.0 | 0.00 | 0.00 | 0.00 | 78 | 1009.9 |
| 20260905143035 | 68 | 338 | 2.0 | 7.0 | 0.00 | 0.00 | 0.00 | 78 | 1010.0 |
| 20260905142016 | 68 | 23 | 2.0 | 8.0 | 0.00 | 0.00 | 0.00 | 78 | 1010.0 |
| 20260905141015 | 68 | 0 | 3.0 | 7.0 | 0.00 | 0.00 | 0.00 | 78 | 1010.0 |
| 20260905140036 | 68 | 0 | 3.0 | 8.0 | 0.00 | 0.00 | 0.00 | 79 | 1010.1 |
| 20260905135016 | 68 | 0 | 4.0 | 9.0 | 0.00 | 0.00 | 0.00 | 80 | 1010.0 |
| 20260905134016 | 68 | 0 | 3.0 | 10.0 | 0.00 | 0.00 | 0.00 | 81 | 1009.9 |
| 20260905133016 | 67 | 338 | 4.0 | 9.0 | 0.00 | 0.00 | 0.00 | 81 | 1009.8 |
| 20260905132015 | 67 | 0 | 3.0 | 6.0 | 0.00 | 0.00 | 0.00 | 81 | 1009.7 |
| 20260905131016 | 67 | 0 | 4.0 | 9.0 | 0.00 | 0.00 | 0.00 | 82 | 1009.6 |
| 20260905130016 | 66 | 0 | 3.0 | 8.0 | 0.00 | 0.00 | 0.00 | 83 | 1009.5 |
| 20260905125016 | 66 | 338 | 3.0 | 7.0 | 0.00 | 0.00 | 0.00 | 84 | 1009.5 |
| 20260905124016 | 65 | 0 | 2.0 | 5.0 | 0.00 | 0.00 | 0.00 | 85 | 1009.3 |
| 20260905123016 | 65 | 0 | 3.0 | 6.0 | 0.00 | 0.00 | 0.00 | 86 | 1009.2 |
| 20260905122015 | 64 | 0 | 2.0 | 6.0 | 0.00 | 0.00 | 0.00 | 88 | 1009.1 |
| 20260905121015 | 63 | 0 | 1.0 | 5.0 | 0.00 | 0.00 | 0.00 | 89 | 1009.0 |
| 20260905120015 | 63 | 0 | 1.0 | 5.0 | 0.00 | 0.00 | 0.00 | 90 | 1009.0 |
| 20260905115015 | 62 | 0.0 | 2.0 | 0.00 | 0.00 | 0.00 | 91 | 1008.8 | |
| 20260905114055 | 62 | 0.0 | 1.0 | 0.00 | 0.00 | 0.00 | 91 | 1008.9 | |
| 20260905113035 | 62 | 0.0 | 1.0 | 0.00 | 0.00 | 0.00 | 91 | 1008.7 | |
| 20260905112015 | 61 | 0.0 | 2.0 | 0.00 | 0.00 | 0.00 | 91 | 1008.6 | |
| 20260905111055 | 61 | 0.0 | 2.0 | 0.00 | 0.00 | 0.00 | 91 | 1008.7 | |
| 20260905110015 | 61 | 0.0 | 2.0 | 0.00 | 0.00 | 0.00 | 91 | 1008.5 | |
| 20260905105015 | 61 | 0.0 | 2.0 | 0.00 | 0.00 | 0.00 | 91 | 1008.5 | |
| 20260905104017 | 61 | 0.0 | 1.0 | 0.00 | 0.00 | 0.00 | 90 | 1008.5 | |
| 20260905103037 | 61 | 0.0 | 1.0 | 0.00 | 0.00 | 0.00 | 90 | 1008.5 | |
| 20260905102017 | 61 | 0.0 | 0.0 | 0.00 | 0.00 | 0.00 | 90 | 1008.5 | |
| 20260905101017 | 61 | 0.0 | 1.0 | 0.00 | 0.00 | 0.00 | 90 | 1008.4 | |
| 20260905100017 | 61 | 0.0 | 1.0 | 0.00 | 0.00 | 0.00 | 90 | 1008.4 | |
| 20260905095017 | 61 | 0.0 | 1.0 | 0.00 | 0.00 | 0.00 | 90 | 1008.3 | |
| 20260905094017 | 61 | 0.0 | 2.0 | 0.00 | 0.00 | 0.00 | 90 | 1008.2 | |
| 20260905093017 | 61 | 0.0 | 1.0 | 0.00 | 0.00 | 0.00 | 89 | 1008.2 | |
| 20260905092017 | 61 | 0.0 | 0.0 | 0.00 | 0.00 | 0.00 | 89 | 1008.3 | |
| 20260905091037 | 61 | 0.0 | 1.0 | 0.00 | 0.00 | 0.00 | 89 | 1008.2 | |
| 20260905090037 | 61 | 0.0 | 1.0 | 0.00 | 0.00 | 0.00 | 89 | 1008.2 | |
| 20260905085017 | 61 | 0.0 | 1.0 | 0.00 | 0.00 | 0.00 | 88 | 1008.0 | |
| 20260905084017 | 61 | 0.0 | 0.0 | 0.00 | 0.00 | 0.00 | 87 | 1008.0 | |
| 20260905083017 | 61 | 0.0 | 1.0 | 0.00 | 0.00 | 0.00 | 88 | 1008.0 | |
| 20260905082037 | 62 | 0.0 | 1.0 | 0.00 | 0.00 | 0.00 | 87 | 1008.0 | |
| 20260905081017 | 62 | 0.0 | 1.0 | 0.00 | 0.00 | 0.00 | 87 | 1008.1 | |
| 20260905080017 | 62 | 0.0 | 0.0 | 0.00 | 0.00 | 0.00 | 86 | 1008.0 |